User: anonymous   Login
Location: Oshawa
(43.9000°N, 78.8670°W)
Time: 22:49:46
(UTC-05:00)
Language:

Envisat - Orbit

View from above orbital plane
View from above orbital plane
View from above satellite
View from above satellite

Ground track
Ground track

The orbit data is extracted from the following two-line orbital elements,

1 27386U 02009A   16343.92744754  .00000014  00000-0  18589-4 0  9996
2 27386  98.2602  30.8720 0001184  77.7720 282.3596 14.37883694773734
Epoch (UTC): 08 December 2016 22:15:31
Eccentricity: 0.0001184
inclination: 98.2602°
perigee height: 764 km
apogee height: 766 km
right ascension of ascending node: 30.8720°
argument of perigee: 77.7720°
revolutions per day: 14.37883694
mean anomaly at epoch: 282.3596°
orbit number at epoch: 77373

The dashed part of the orbit path shows where the satellite is in the earth's shadow,  

DLR